Location: Bessat
(45.8735°N, 1.9924°E)
Time: 20:43:18
(UTC+00:00)

CZ-4C R/B - Pass Details

Date: 11 May 2021
Orbit: 609 x 1393 km, 63.4° (Epoch: 20 June)

Event Time Altitude Azimuth Distance (km) Brightness Sun altitude
Rises 22:16:11 0° 315° (NW) 3,937 6.8 -22.7°
Reaches altitude 10° 22:19:00 10° 306° (NW) 3,086 5.9 -22.9°
Maximum altitude 22:25:33 33° 246° (WSW) 2,017 4.1 -23.3°
Enters shadow 22:28:58 25° 207° (SSW) 2,437 4.2 -23.5°
